Location: Newark
(52.5667°N, 8.8000°W)
Time: 01:55:21
(UTC+00:00)

N. Korean satellite - Pass Details

Date: 28 January 2020
Orbit: 456 x 505 km, 97.2° (Epoch: 21 February)

Event Time Altitude Azimuth Distance (km) Brightness Sun altitude
Rises 07:31:34 0° 3° (N) 2,543 10.0 -8.1°
Reaches altitude 10° 07:33:52 10° 350° (N) 1,668 9.0 -7.7°
Maximum altitude 07:36:49 24° 295° (WNW) 1,037 7.6 -7.3°
Drops below altitude 10° 07:39:47 10° 240° (WSW) 1,680 8.9 -6.9°
Sets 07:42:06 0° 226° (SW) 2,566 10.0 -6.6°
